TimeEST,TemperatureF,Dew PointF,Humidity,Sea Level PressureIn,VisibilityMPH,Wind Direction,Wind SpeedMPH,Gust SpeedMPH,PrecipitationIn,Events,Conditions,WindDirDegrees,DateUTC
12:53 AM,6.1,-2.9,67,30.48,10.0,NW,5.8,-,0.00,Snow,Light Snow,310,2014-02-07 05:53:00
1:53 AM,3.9,-5.1,66,30.48,10.0,NW,8.1,-,0.00,,Clear,310,2014-02-07 06:53:00
2:53 AM,-0.0,-5.1,79,30.50,9.0,Calm,Calm,-,0.00,,Clear,0,2014-02-07 07:53:00
3:53 AM,-2.0,-7.1,79,30.50,9.0,Calm,Calm,-,0.00,Snow,Light Snow,0,2014-02-07 08:53:00
4:53 AM,-5.1,-9.0,83,30.51,9.0,Calm,Calm,-,0.00,Snow,Light Snow,0,2014-02-07 09:53:00
5:53 AM,-6.0,-9.9,83,30.50,10.0,Calm,Calm,-,0.00,,Clear,0,2014-02-07 10:53:00
6:53 AM,-6.0,-11.0,79,30.51,10.0,Calm,Calm,-,0.00,Snow,Light Snow,0,2014-02-07 11:53:00
7:53 AM,-7.1,-11.0,83,30.51,9.0,Calm,Calm,-,0.00,Snow,Light Snow,0,2014-02-07 12:53:00
8:53 AM,-0.9,-5.1,83,30.53,9.0,Calm,Calm,-,0.00,Snow,Light Snow,0,2014-02-07 13:53:00
9:53 AM,6.1,-2.9,67,30.54,10.0,West,3.5,-,0.00,,Clear,260,2014-02-07 14:53:00
10:53 AM,8.1,-4.0,58,30.54,10.0,SW,3.5,-,N/A,,Clear,220,2014-02-07 15:53:00
11:53 AM,10.9,-2.9,54,30.55,10.0,Variable,4.6,-,N/A,,Clear,0,2014-02-07 16:53:00
12:53 PM,14.0,-2.9,47,30.53,10.0,West,6.9,-,N/A,,Clear,260,2014-02-07 17:53:00
1:53 PM,17.1,-0.9,45,30.49,10.0,Variable,3.5,-,N/A,,Clear,0,2014-02-07 18:53:00
2:53 PM,17.1,-0.9,45,30.48,10.0,NW,3.5,-,N/A,,Clear,310,2014-02-07 19:53:00
3:53 PM,19.0,-0.0,43,30.48,10.0,Calm,Calm,-,N/A,,Clear,0,2014-02-07 20:53:00
4:53 PM,18.0,-0.9,44,30.47,10.0,NW,4.6,-,N/A,,Clear,310,2014-02-07 21:53:00
5:53 PM,16.0,1.0,52,30.46,10.0,NW,3.5,-,N/A,,Clear,320,2014-02-07 22:53:00
6:53 PM,12.0,-0.0,59,30.46,10.0,North,3.5,-,N/A,,Clear,10,2014-02-07 23:53:00
7:53 PM,8.1,-0.0,70,30.46,10.0,Calm,Calm,-,0.00,,Clear,0,2014-02-08 00:53:00
8:53 PM,6.1,-0.9,73,30.45,10.0,Calm,Calm,-,N/A,,Clear,0,2014-02-08 01:53:00
9:53 PM,5.0,-0.9,76,30.45,9.0,Calm,Calm,-,0.00,Snow,Light Snow,0,2014-02-08 02:53:00
10:53 PM,7.0,-0.0,73,30.44,10.0,Calm,Calm,-,0.00,,Clear,0,2014-02-08 03:53:00
11:53 PM,9.0,1.0,70,30.43,10.0,NW,3.5,-,0.00,,Clear,320,2014-02-08 04:53:00